Epoch 2009 May 9.0 TT = JDT 2454960.5
T 2009 May 18.63175 TT MPC
q 2.4499433 (2000.0) P Q
n 0.04496270 Peri. 154.55715 +0.92815599 +0.37173940
a 7.8325125 Node 183.76543 -0.37097351 +0.92001263
e 0.6872085 Incl. 16.21455 -0.03008511 +0.12404267
P 21.92